Home   Weather   Markham   Past weeks

Flag for Canada Past Weather in Markham, Ontario, Canada — Yesterday and Last 2 Weeks

Now
64 °F

Thunderstorms. Fog.


Feels Like: 64 °F
Forecast: 63 / 75 °F
Wind: No wind

Location: Toronto Buttonville

Current Time: Jun 23, 2017 at 1:10:25 am

Latest Report: Jun 23, 2017 at 12:23 am


Visibility: 4 mi

Pressure: 29.77 "Hg

Humidity: 88%

Dew Point: 61 °F

Location of MarkhamLocation

Past Weather in Markham — Graph

°F

Markham Temperature Yesterday

Maximum temperature yesterday: 72 °F (at 3:00 pm)
Minimum temperature yesterday: 54 °F (at 5:00 am)
Average temperature yesterday: 63 °F

High & Low Weather Summary for the Past Weeks

 TemperatureHumidityPressure
High88 °F (Jun 11, 3:00 pm)100% (Jun 14, 4:00 am)30.12 "Hg (Jun 14, 4:00 am)
Low50 °F (Jun 8, 5:00 am)33% (Jun 8, 5:00 pm)29.52 "Hg (Jun 18, 4:00 pm)
Average69 °F67%29.85 "Hg
* Reported Jun 8 12:00 am — Jun 23 12:00 am, Markham. Weather by CustomWeather, © 2017

Note: Actual official high and low records may vary slightly from our data, if they occured in-between our weather recording intervals... More about our weather records

Advertising

Markham Weather History for the Previous 24 Hours

Scroll right to see more
 ConditionsComfort  
Time TempWeatherWind HumidityBarometerVisibility
12:00 am
Fri, Jun 23
64 °FMostly cloudy.2 mph83%29.78 "Hg10 mi
11:00 pm
Thu, Jun 22
64 °FMostly cloudy.3 mph83%29.78 "Hg12 mi
10:00 pm64 °FOvercast.5 mph83%29.79 "Hg15 mi
9:00 pm64 °FMostly cloudy.5 mph83%29.79 "Hg15 mi
8:00 pm66 °FPartly sunny.6 mph78%29.80 "Hg15 mi
7:00 pm68 °FPartly sunny.7 mph78%29.82 "Hg15 mi
6:00 pm70 °FPartly sunny.8 mph73%29.83 "Hg15 mi
5:00 pm72 °FPartly sunny.6 mph69%29.84 "Hg15 mi
4:00 pm72 °FPartly sunny.12 mph65%29.84 "Hg15 mi
3:00 pm72 °FPartly sunny.9 mph61%29.87 "Hg15 mi
1:00 pm64 °FCloudy.13 mph88%29.89 "Hg14 mi
12:27 pm63 °FSprinkles. Mostly cloudy.8 mph88%29.92 "Hg10 mi
12:16 pm63 °FRain showers. Overcast.8 mph88%29.93 "Hg8 mi
12:00 pm64 °FSprinkles. Overcast.7 mph78%29.95 "Hg10 mi
11:00 am66 °FSprinkles. Overcast.8 mph68%29.97 "Hg14 mi
10:00 am66 °FCloudy.8 mph68%29.97 "Hg15 mi
9:00 am68 °FBroken clouds.7 mph60%29.97 "Hg15 mi
8:00 am64 °FBroken clouds.3 mph73%29.97 "Hg15 mi
7:00 am59 °FPartly sunny.2 mph82%29.97 "Hg15 mi
6:00 am54 °FPartly sunny.No wind94%29.97 "Hg15 mi
5:00 am54 °FPassing clouds.2 mph94%29.97 "Hg15 mi
4:00 am55 °FClear.No wind88%29.97 "Hg15 mi
3:00 am55 °FClear.No wind88%29.97 "Hg15 mi
2:00 am59 °FClear.No wind82%29.97 "Hg15 mi
1:00 am59 °FClear.2 mph82%29.98 "Hg15 mi
Weather by CustomWeather, © 2017

See weather overviewHow to use our weather pages